FENGYUN 1C DEB

Satellite information

Favourite Embed

Satellite Type and Status

DEBRISIN ORBIT

Key statistics

Satellite FENGYUN 1C DEB at a glance.

Uptime

9556

Days in orbit

Revolutions

≈ 14.2

Per day

Orbit

SSO

Sun Synchronous Orbit

Inclination

99.1

Latest

Satellite identification and parameters

Extended collection of information and parameters for FENGYUN 1C DEB.

Object identification

Identified? True

Debris? True

Object name: FENGYUN 1C DEB

International designator: 1999-025ARM

Object number (NORAD): 30703

Object ID (CCSDS): 30703

Country: PEOPLES REPUBLIC OF CHINA (PRC)

Current information (Y/N): Y

RCS size: SMALL

Orbital parameters

Period: 101.531 minutes

Inclination: 99.1248 deg

SMA: 7209.272 km

Apoapsis: 918.512 km

Periapsis: 743.762 km

RAAN: 167.6701 deg

Eccentricy: 0.0121198

Argument of periapsis: 24.3148 deg

Mean anomaly: 127.8592 deg

Mean motion: 14.18292088 rev/day

Mean motion (dot): 0.00002027 rev/day2

B* drag term: 0.00093643 1/REarth

Two-line elements (TLE)

Creation date: July 6, 2025, 6:05 p.m.

Reference frame: TEME

Reference center: EARTH

Epoch: July 6, 2025, 10:02 a.m. UTC

TLE line 0: 0 FENGYUN 1C DEB

TLE line 1: 1 30703U 99025ARM 25187.41839554 .00002027 00000-0 93643-3 0 9999

TLE line 2: 2 30703 99.1248 167.6701 0121198 24.3148 127.8592 14.18292088942811

Live tracking on map

Real-time ground track for satellite FENGYUN 1C DEB.

In-orbit conjunctions

A list of the most updated potential collisions computed for object FENGYUN 1C DEB.

Target Orbit TCA Probability of collision Miss distance Type
FALCONSAT SSO 2024-09-03 19:06:08 0.0001746792 101.0 (m) PAYLOAD
COSMOS 1249 LEO 2024-08-18 07:11:18 0.0002626578 746.0 (m) PAYLOAD
DELTA 1 DEB SSO 2024-06-10 22:46:21 0.0001502213 402.0 (m) DEBRIS

Associated space launch

Chinese polar orbiting meteorological satellite

FENGYUN 1C DEB was lifted into orbit during the mission ‘Long March 4B | Feng Yun 1C’, on board a Long March 4B space rocket.

The launch took place on May 10, 1999, 1:33 a.m. from Launch Complex 7.

For more information about the launch, click the button.

Launch to space Long March 4B | Feng Yun 1C
Long March 4B | Feng Yun 1C

Agency: N/A

Status: Launch Successful

Launch date: May 10, 1999, 1:33 a.m. UTC

Rocket: Long March 4B

Launch pad: Launch Complex 7

Location: Taiyuan Satellite Launch Center, People's Republic of China

...

Latest news about this satellite

There are no fresh news available about this satellite. Check back as we update our databases every day.


Newsletter sign-up

Weekly statistics, charts and insights to help you stay on top of the space industry.